Station Historical Data
Daily Summary for February 12, 2012 Units:  Metric    English   Both
« Previous Day
Next Day »
Daily Weekly Monthly Yearly Custom
  High: Low: Average:
Temperature: 3.8 °C -8.9 °C -3.1 °C
Dew Point: -9.9 °C -12.9 °C -11.9 °C
Humidity: 74% 32% 53%
Wind Speed: 17.7km/h 0km/h 5km/h
Wind Gust: 22.5km/h - -
Wind- - NW
Pressure: 1035.1 hPa 1028.7 hPa -
Precipitation: 0 mm    
Historical Graphs
 
 
Tabular Data for February 12, 2012
Time Temperature Dew Point Pressure Wind Wind Speed Wind Gust Humidity Rainfall Rate (Hourly) Conditions
00:00 -6.3 °C -12.8 °C 1032.7 hPa NW 6.4 km/h 8 km/h 60% 0 mm
00:01 -6.3 °C -12.8 °C 1032.7 hPa NW 6.4 km/h 8 km/h 60% 0 mm
00:06 -6.3 °C -12.4 °C 1033.1 hPa NW 6.4 km/h 8 km/h 62% 0 mm
00:08 -6.4 °C -12.4 °C 1033.1 hPa NW 4.8 km/h 8 km/h 62% 0 mm
00:13 -6.4 °C -12.4 °C 1033.1 hPa WNW 6.4 km/h 6.4 km/h 62% 0 mm
00:18 -6.4 °C -12.7 °C 1033.1 hPa NW 4.8 km/h 6.4 km/h 61% 0 mm
00:23 -6.5 °C -12.6 °C 1033.1 hPa NNW 4.8 km/h 6.4 km/h 62% 0 mm
00:28 -6.6 °C -12.6 °C 1033.1 hPa NW 3.2 km/h 8 km/h 62% 0 mm
00:33 -6.6 °C -12.4 °C 1033.1 hPa NW 3.2 km/h 9.7 km/h 63% 0 mm
00:38 -6.6 °C -12.4 °C 1033.1 hPa NNW 3.2 km/h 6.4 km/h 63% 0 mm
00:43 -6.6 °C -12.4 °C 1033.4 hPa NW 4.8 km/h 8 km/h 63% 0 mm
00:48 -6.7 °C -12.6 °C 1033.4 hPa NNW 4.8 km/h 6.4 km/h 63% 0 mm
00:53 -6.7 °C -12.3 °C 1033.4 hPa NNW 6.4 km/h 8 km/h 64% 0 mm
00:58 -6.7 °C -12.6 °C 1033.4 hPa NNW 8 km/h 9.7 km/h 63% 0 mm
01:03 -6.7 °C -12.6 °C 1033.4 hPa NW 8 km/h 8 km/h 63% 0 mm
01:08 -6.8 °C -12.4 °C 1033.4 hPa NNW 6.4 km/h 8 km/h 64% 0 mm
01:13 -6.8 °C -12.3 °C 1033.4 hPa NW 3.2 km/h 6.4 km/h 65% 0 mm
01:18 -6.9 °C -12.3 °C 1033.4 hPa NW 4.8 km/h 6.4 km/h 65% 0 mm
01:23 -6.9 °C -12.4 °C 1033.7 hPa WNW 3.2 km/h 4.8 km/h 65% 0 mm
01:28 -7 °C -12.4 °C 1033.4 hPa NNW 4.8 km/h 6.4 km/h 65% 0 mm
01:33 -7 °C -12.4 °C 1033.4 hPa WNW 3.2 km/h 4.8 km/h 65% 0 mm
01:38 -7.1 °C -12.6 °C 1033.4 hPa WNW 1.6 km/h 3.2 km/h 65% 0 mm
01:43 -7.1 °C -12.6 °C 1033.4 hPa WNW 1.6 km/h 4.8 km/h 65% 0 mm
01:48 -7.2 °C -12.6 °C 1033.4 hPa NW 1.6 km/h 3.2 km/h 65% 0 mm
01:53 -7.3 °C -12.6 °C 1033.4 hPa NW 1.6 km/h 3.2 km/h 66% 0 mm
01:58 -7.3 °C -12.6 °C 1033.4 hPa NW 1.6 km/h 3.2 km/h 66% 0 mm
02:03 -7.3 °C -12.6 °C 1033.4 hPa WNW 1.6 km/h 1.6 km/h 66% 0 mm
02:08 -7.4 °C -12.7 °C 1033.4 hPa WNW 1.6 km/h 1.6 km/h 66% 0 mm
02:13 -7.4 °C -12.5 °C 1033.4 hPa Calm   1.6 km/h 67% 0 mm
02:18 -7.6 °C -12.6 °C 1033.4 hPa Calm   1.6 km/h 67% 0 mm
02:23 -7.6 °C -12.7 °C 1033.4 hPa NW 1.6 km/h 3.2 km/h 67% 0 mm
02:28 -7.6 °C -12.6 °C 1033.1 hPa NNW 3.2 km/h 3.2 km/h 67% 0 mm
02:34 -7.6 °C -12.5 °C 1033.1 hPa NNW 4.8 km/h 4.8 km/h 68% 0 mm
02:39 -7.7 °C -12.4 °C 1033.1 hPa NNW 4.8 km/h 6.4 km/h 69% 0 mm
02:44 -7.7 °C -12.4 °C 1033.1 hPa NNW 3.2 km/h 6.4 km/h 69% 0 mm
02:49 -7.7 °C -12.6 °C 1033.1 hPa NW 3.2 km/h 6.4 km/h 68% 0 mm
02:54 -7.7 °C -12.4 °C 1033.1 hPa NW 1.6 km/h 4.8 km/h 69% 0 mm
02:59 -7.8 °C -12.5 °C 1032.7 hPa NW 3.2 km/h 3.2 km/h 69% 0 mm
03:04 -7.8 °C -12.5 °C 1032.7 hPa NW 3.2 km/h 3.2 km/h 69% 0 mm
03:09 -7.9 °C -12.6 °C 1032.7 hPa NNW 3.2 km/h 3.2 km/h 69% 0 mm
03:14 -7.9 °C -12.6 °C 1032.4 hPa NNW 3.2 km/h 6.4 km/h 69% 0 mm
03:19 -7.9 °C -12.6 °C 1032.4 hPa NNW 3.2 km/h 6.4 km/h 69% 0 mm
03:24 -7.9 °C -12.6 °C 1032.4 hPa NNW 1.6 km/h 4.8 km/h 69% 0 mm
03:29 -7.9 °C -12.4 °C 1032.4 hPa NW 3.2 km/h 6.4 km/h 70% 0 mm
03:34 -7.9 °C -12.6 °C 1032.4 hPa NW 3.2 km/h 4.8 km/h 69% 0 mm
03:39 -7.9 °C -12.6 °C 1032.4 hPa NNW 4.8 km/h 6.4 km/h 69% 0 mm
03:44 -8 °C -12.7 °C 1032.4 hPa NNW 1.6 km/h 4.8 km/h 69% 0 mm
03:49 -8.1 °C -12.7 °C 1032.4 hPa Calm   3.2 km/h 69% 0 mm
03:54 -8.1 °C -12.6 °C 1032.7 hPa West 3.2 km/h 3.2 km/h 70% 0 mm
03:59 -8.1 °C -12.7 °C 1032.7 hPa Calm   1.6 km/h 69% 0 mm
04:04 -8.1 °C -12.8 °C 1032.7 hPa WNW 3.2 km/h 4.8 km/h 69% 0 mm
04:09 -8.1 °C -12.7 °C 1032.7 hPa West 1.6 km/h 4.8 km/h 69% 0 mm
04:14 -8.1 °C -12.8 °C 1032.7 hPa West 1.6 km/h 1.6 km/h 69% 0 mm
04:19 -8.1 °C -12.8 °C 1033.1 hPa West 1.6 km/h 3.2 km/h 69% 0 mm
04:24 -8.1 °C -12.8 °C 1033.1 hPa West 1.6 km/h 4.8 km/h 69% 0 mm
04:29 -8 °C -12.8 °C 1033.1 hPa West 1.6 km/h 4.8 km/h 68% 0 mm
04:34 -8.1 °C -12.9 °C 1033.1 hPa WNW 4.8 km/h 6.4 km/h 68% 0 mm
04:39 -8 °C -12.8 °C 1032.7 hPa NW 3.2 km/h 4.8 km/h 68% 0 mm
04:44 -8.1 °C -12.9 °C 1032.7 hPa NNW 4.8 km/h 6.4 km/h 68% 0 mm
04:49 -8.1 °C -12.9 °C 1032.7 hPa NW 4.8 km/h 4.8 km/h 68% 0 mm
04:54 -8.2 °C -12.7 °C 1032.7 hPa NW 3.2 km/h 4.8 km/h 70% 0 mm
04:59 -8.3 °C -12.8 °C 1032.7 hPa NW 3.2 km/h 3.2 km/h 70% 0 mm
05:04 -8.4 °C -12.7 °C 1032.7 hPa NW 1.6 km/h 3.2 km/h 71% 0 mm
05:10 -8.5 °C -12.8 °C 1032.7 hPa WNW 1.6 km/h 3.2 km/h 71% 0 mm
05:15 -8.6 °C -12.7 °C 1032.7 hPa WNW 3.2 km/h 3.2 km/h 72% 0 mm
05:20 -8.7 °C -12.7 °C 1032.7 hPa NW 1.6 km/h 3.2 km/h 73% 0 mm
05:25 -8.8 °C -12.6 °C 1032.7 hPa Calm   1.6 km/h 74% 0 mm
05:30 -8.9 °C -12.8 °C 1032.7 hPa WNW 1.6 km/h 3.2 km/h 73% 0 mm
05:35 -8.9 °C -12.7 °C 1033.1 hPa NW 1.6 km/h 3.2 km/h 74% 0 mm
05:40 -8.9 °C -12.7 °C 1033.1 hPa NW 1.6 km/h 4.8 km/h 74% 0 mm
05:45 -8.8 °C -12.8 °C 1033.1 hPa NW 3.2 km/h 6.4 km/h 73% 0 mm
05:50 -8.7 °C -12.7 °C 1033.1 hPa NW 3.2 km/h 4.8 km/h 73% 0 mm
05:55 -8.7 °C -12.8 °C 1033.1 hPa NW 6.4 km/h 6.4 km/h 72% 0 mm
06:00 -8.7 °C -12.6 °C 1033.4 hPa NW 3.2 km/h 4.8 km/h 73% 0 mm
06:05 -8.7 °C -12.7 °C 1033.4 hPa NW 3.2 km/h 4.8 km/h 73% 0 mm
06:10 -8.7 °C -12.7 °C 1033.4 hPa NW 3.2 km/h 6.4 km/h 73% 0 mm
06:15 -8.8 °C -12.7 °C 1033.4 hPa NW 4.8 km/h 6.4 km/h 73% 0 mm
06:20 -8.8 °C -12.6 °C 1033.7 hPa WNW 6.4 km/h 6.4 km/h 74% 0 mm
06:25 -8.8 °C -12.6 °C 1033.7 hPa NW 6.4 km/h 6.4 km/h 74% 0 mm
06:30 -8.8 °C -12.6 °C 1033.7 hPa NW 8 km/h 8 km/h 74% 0 mm
06:35 -8.7 °C -12.6 °C 1033.7 hPa NNW 8 km/h 9.7 km/h 73% 0 mm
06:36 -8.7 °C -12.6 °C 1033.7 hPa NW 6.4 km/h 9.7 km/h 73% 0 mm
06:41 -8.7 °C -12.6 °C 1033.7 hPa NNW 6.4 km/h 8 km/h 73% 0 mm
06:46 -8.6 °C -12.5 °C 1033.7 hPa NW 6.4 km/h 8 km/h 73% 0 mm
06:51 -8.6 °C -12.3 °C 1033.7 hPa NNW 4.8 km/h 9.7 km/h 74% 0 mm
06:56 -8.6 °C -12.5 °C 1033.7 hPa NW 4.8 km/h 11.3 km/h 73% 0 mm
07:01 -8.6 °C -12.5 °C 1034.1 hPa NW 4.8 km/h 11.3 km/h 73% 0 mm
07:06 -8.6 °C -12.5 °C 1034.1 hPa NW 4.8 km/h 8 km/h 73% 0 mm
07:11 -8.6 °C -12.5 °C 1034.1 hPa WNW 6.4 km/h 9.7 km/h 73% 0 mm
07:16 -8.6 °C -12.5 °C 1034.1 hPa NW 4.8 km/h 8 km/h 73% 0 mm
07:21 -8.6 °C -12.6 °C 1034.1 hPa NW 4.8 km/h 8 km/h 73% 0 mm
07:26 -8.6 °C -12.6 °C 1034.1 hPa NW 8 km/h 8 km/h 73% 0 mm
07:31 -8.7 °C -12.4 °C 1034.1 hPa NW 4.8 km/h 8 km/h 74% 0 mm
07:36 -8.6 °C -12.6 °C 1033.7 hPa NW 4.8 km/h 8 km/h 73% 0 mm
07:41 -8.6 °C -12.5 °C 1034.1 hPa NW 4.8 km/h 11.3 km/h 73% 0 mm
07:46 -8.6 °C -12.6 °C 1034.1 hPa NW 3.2 km/h 8 km/h 73% 0 mm
07:51 -8.6 °C -12.5 °C 1034.1 hPa NW 8 km/h 11.3 km/h 73% 0 mm
07:56 -8.4 °C -12.4 °C 1033.7 hPa NW 4.8 km/h 9.7 km/h 73% 0 mm
08:01 -8.4 °C -12.6 °C 1033.7 hPa NW 4.8 km/h 8 km/h 72% 0 mm
08:06 -8.2 °C -12.3 °C 1034.1 hPa NW 3.2 km/h 11.3 km/h 72% 0 mm
08:11 -8 °C -12.3 °C 1034.1 hPa NW 4.8 km/h 9.7 km/h 71% 0 mm
08:16 -7.8 °C -12.2 °C 1034.1 hPa NW 3.2 km/h 6.4 km/h 71% 0 mm
08:21 -7.7 °C -12.2 °C 1034.4 hPa WNW 8 km/h 9.7 km/h 70% 0 mm
08:26 -7.5 °C -12 °C 1034.4 hPa NW 4.8 km/h 6.4 km/h 70% 0 mm
08:31 -7.3 °C -11.7 °C 1034.4 hPa WNW 4.8 km/h 8 km/h 71% 0 mm
08:36 -7.2 °C -11.9 °C 1034.4 hPa NW 4.8 km/h 12.9 km/h 69% 0 mm
08:41 -7 °C -11.9 °C 1034.4 hPa NNW 4.8 km/h 12.9 km/h 68% 0 mm
08:46 -6.8 °C -11.7 °C 1034.4 hPa NW 6.4 km/h 11.3 km/h 68% 0 mm
08:51 -6.6 °C -11.7 °C 1034.8 hPa NNW 4.8 km/h 9.7 km/h 67% 0 mm
08:56 -6.5 °C -12 °C 1034.4 hPa North 14.5 km/h 16.1 km/h 65% 0 mm
09:01 -6.3 °C -11.8 °C 1034.4 hPa NW 8 km/h 9.7 km/h 65% 0 mm
09:06 -6.1 °C -11.6 °C 1034.8 hPa NW 9.7 km/h 12.9 km/h 65% 0 mm
09:12 -5.9 °C -11.7 °C 1034.8 hPa NW 14.5 km/h 16.1 km/h 64% 0 mm
09:16 -5.8 °C -11.9 °C 1034.8 hPa NNW 12.9 km/h 16.1 km/h 62% 0 mm
09:22 -5.7 °C -12 °C 1034.8 hPa WNW 14.5 km/h 19.3 km/h 61% 0 mm
09:27 -5.6 °C -12.3 °C 1034.8 hPa NNW 11.3 km/h 17.7 km/h 59% 0 mm
09:32 -5.4 °C -12.1 °C 1034.8 hPa NNW 12.9 km/h 20.9 km/h 59% 0 mm
09:37 -5.3 °C -12.7 °C 1034.8 hPa NNW 17.7 km/h 19.3 km/h 56% 0 mm
09:42 -5.1 °C -12.2 °C 1034.8 hPa NW 16.1 km/h 22.5 km/h 57% 0 mm
09:47 -4.9 °C -11.9 °C 1034.8 hPa NW 11.3 km/h 17.7 km/h 58% 0 mm
09:52 -4.7 °C -12.1 °C 1034.8 hPa NNW 12.9 km/h 19.3 km/h 56% 0 mm
09:57 -4.6 °C -12.2 °C 1034.8 hPa WNW 16.1 km/h 17.7 km/h 55% 0 mm
10:02 -4.5 °C -12.4 °C 1034.8 hPa NNW 11.3 km/h 19.3 km/h 54% 0 mm
10:07 -4.4 °C -12.6 °C 1034.8 hPa North 11.3 km/h 19.3 km/h 53% 0 mm
10:12 -4.3 °C -12.2 °C 1034.8 hPa NNW 8 km/h 17.7 km/h 54% 0 mm
10:17 -4.2 °C -12.3 °C 1034.8 hPa NNW 4.8 km/h 17.7 km/h 53% 0 mm
10:22 -4 °C -11.9 °C 1034.8 hPa NW 8 km/h 16.1 km/h 54% 0 mm
10:27 -3.8 °C -11.6 °C 1034.8 hPa NNW 12.9 km/h 12.9 km/h 55% 0 mm
10:32 -3.7 °C -11.9 °C 1034.8 hPa West 8 km/h 11.3 km/h 53% 0 mm
10:37 -3.6 °C -12.1 °C 1034.8 hPa NW 9.7 km/h 12.9 km/h 52% 0 mm
10:42 -3.4 °C -12.1 °C 1035.1 hPa WNW 4.8 km/h 11.3 km/h 51% 0 mm
10:47 -3.2 °C -12.2 °C 1035.1 hPa West 9.7 km/h 16.1 km/h 50% 0 mm
10:52 -3.3 °C -12.7 °C 1035.1 hPa NNW 4.8 km/h 14.5 km/h 48% 0 mm
10:57 -3.3 °C -12.7 °C 1035.1 hPa WNW 11.3 km/h 19.3 km/h 48% 0 mm
11:02 -3.2 °C -12.6 °C 1035.1 hPa NNW 11.3 km/h 16.1 km/h 48% 0 mm
11:07 -3 °C -11.9 °C 1035.1 hPa NW 9.7 km/h 16.1 km/h 50% 0 mm
11:12 -2.6 °C -11.6 °C 1034.8 hPa NW 11.3 km/h 12.9 km/h 50% 0 mm
11:17 -2.7 °C -11.9 °C 1035.1 hPa NNW 9.7 km/h 9.7 km/h 49% 0 mm
11:22 -2.4 °C -11.7 °C 1034.8 hPa NNE 9.7 km/h 14.5 km/h 49% 0 mm
11:27 -2.3 °C -12.3 °C 1034.8 hPa WNW 4.8 km/h 11.3 km/h 46% 0 mm
11:32 -2.2 °C -11.7 °C 1034.8 hPa NW 4.8 km/h 11.3 km/h 48% 0 mm
11:37 -2.1 °C -12.7 °C 1034.8 hPa WNW 4.8 km/h 14.5 km/h 44% 0 mm
11:42 -2 °C -11.8 °C 1034.8 hPa WSW 6.4 km/h 12.9 km/h 47% 0 mm
11:47 -1.9 °C -12 °C 1034.8 hPa WNW 8 km/h 11.3 km/h 46% 0 mm
11:52 -1.7 °C -12.1 °C 1034.4 hPa West 9.7 km/h 9.7 km/h 45% 0 mm
11:57 -1.7 °C -11.5 °C 1034.4 hPa NNW 4.8 km/h 9.7 km/h 47% 0 mm
12:02 -1.5 °C -12.2 °C 1034.4 hPa NNW 9.7 km/h 12.9 km/h 44% 0 mm
12:07 -1.5 °C -11.9 °C 1034.4 hPa WNW 8 km/h 11.3 km/h 45% 0 mm
12:12 -1.4 °C -11.8 °C 1034.4 hPa North 8 km/h 14.5 km/h 45% 0 mm
12:17 -1.1 °C -11.6 °C 1034.4 hPa WNW 6.4 km/h 9.7 km/h 45% 0 mm
12:22 -0.7 °C -11.1 °C 1034.4 hPa NW 9.7 km/h 16.1 km/h 45% 0 mm
12:27 -0.7 °C -11.4 °C 1034.4 hPa NW 6.4 km/h 11.3 km/h 44% 0 mm
12:32 -0.5 °C -11 °C 1034.1 hPa NNE 8 km/h 16.1 km/h 45% 0 mm
12:38 -0.3 °C -11.1 °C 1034.1 hPa NNW 9.7 km/h 12.9 km/h 44% 0 mm
12:43 -0.2 °C -11.9 °C 1034.1 hPa NW 6.4 km/h 9.7 km/h 41% 0 mm
12:48 -0.1 °C -11.5 °C 1034.1 hPa NW 6.4 km/h 14.5 km/h 42% 0 mm
12:53 -0.1 °C -11.8 °C 1033.7 hPa East 3.2 km/h 14.5 km/h 41% 0 mm
12:58 -0.1 °C -11.8 °C 1033.7 hPa NW 11.3 km/h 16.1 km/h 41% 0 mm
13:03 -0.1 °C -12.4 °C 1033.7 hPa West 4.8 km/h 14.5 km/h 39% 0 mm
13:08 0.2 °C -11.2 °C 1033.7 hPa NNE 11.3 km/h 14.5 km/h 42% 0 mm
13:13 0.4 °C -11.3 °C 1033.4 hPa NW 4.8 km/h 12.9 km/h 41% 0 mm
13:18 0.3 °C -11.4 °C 1033.7 hPa NW 3.2 km/h 14.5 km/h 41% 0 mm
13:23 0.5 °C -11.8 °C 1033.4 hPa West 8 km/h 16.1 km/h 39% 0 mm
13:29 0.5 °C -11.8 °C 1033.4 hPa NW 11.3 km/h 19.3 km/h 39% 0 mm
13:34 1.1 °C -10.7 °C 1033.1 hPa NW 11.3 km/h 11.3 km/h 41% 0 mm
13:39 1.5 °C -10.9 °C 1033.1 hPa WNW 8 km/h 9.7 km/h 39% 0 mm
13:44 1.6 °C -10.6 °C 1033.1 hPa NW 4.8 km/h 14.5 km/h 40% 0 mm
13:49 1.5 °C -11.3 °C 1033.1 hPa NW 6.4 km/h 11.3 km/h 38% 0 mm
13:54 1.4 °C -11.7 °C 1033.1 hPa WNW 9.7 km/h 17.7 km/h 37% 0 mm
13:59 1.3 °C -11.4 °C 1032.7 hPa Calm   12.9 km/h 38% 0 mm
14:04 1.6 °C -11.2 °C 1032.7 hPa NE 4.8 km/h 8 km/h 38% 0 mm
14:09 1.7 °C -11.7 °C 1032.7 hPa WNW 9.7 km/h 16.1 km/h 36% 0 mm
14:14 1.7 °C -11.7 °C 1032.7 hPa NW 9.7 km/h 14.5 km/h 36% 0 mm
14:19 1.9 °C -10.6 °C 1032.4 hPa West 1.6 km/h 6.4 km/h 39% 0 mm
14:24 2.1 °C -11.1 °C 1032.4 hPa NW 11.3 km/h 11.3 km/h 37% 0 mm
14:29 2.1 °C -10.4 °C 1032.4 hPa NNW 8 km/h 11.3 km/h 39% 0 mm
14:34 2.3 °C -11.2 °C 1032.4 hPa NW 9.7 km/h 16.1 km/h 36% 0 mm
14:40 2.3 °C -10.9 °C 1032.1 hPa NW 9.7 km/h 12.9 km/h 37% 0 mm
14:45 2.5 °C -11.4 °C 1032.1 hPa NW 6.4 km/h 9.7 km/h 35% 0 mm
14:46 2.6 °C -10.6 °C 1032.1 hPa NNW 4.8 km/h 6.4 km/h 37% 0 mm
14:51 2.9 °C -10.3 °C 1032.1 hPa NW 12.9 km/h 19.3 km/h 37% 0 mm
14:56 3 °C -10.6 °C 1032.1 hPa WNW 9.7 km/h 14.5 km/h 36% 0 mm
15:01 2.9 °C -11.4 °C 1032.1 hPa WNW 12.9 km/h 17.7 km/h 34% 0 mm
15:06 3 °C -10.9 °C 1032.1 hPa NW 9.7 km/h 16.1 km/h 35% 0 mm
15:11 3.2 °C -10.4 °C 1032.1 hPa West 9.7 km/h 12.9 km/h 36% 0 mm
15:16 3.2 °C -11.2 °C 1031.7 hPa West 4.8 km/h 9.7 km/h 34% 0 mm
15:21 3.4 °C -9.9 °C 1031.7 hPa NW 8 km/h 16.1 km/h 37% 0 mm
15:26 3.2 °C -11.5 °C 1031.7 hPa WNW 11.3 km/h 14.5 km/h 33% 0 mm
15:31 3.2 °C -11.6 °C 1031.7 hPa West 9.7 km/h 11.3 km/h 33% 0 mm
15:36 3.3 °C -11.1 °C 1031.4 hPa NW 9.7 km/h 11.3 km/h 34% 0 mm
15:42 3.4 °C -10.9 °C 1031.4 hPa NNW 6.4 km/h 14.5 km/h 34% 0 mm
15:47 3.4 °C -11.7 °C 1031.4 hPa WSW 3.2 km/h 8 km/h 32% 0 mm
15:52 3.5 °C -10.9 °C 1031.4 hPa NW 4.8 km/h 6.4 km/h 34% 0 mm
15:57 3.7 °C -11.1 °C 1031 hPa NW 9.7 km/h 14.5 km/h 33% 0 mm
16:02 3.5 °C -11.3 °C 1031 hPa WNW 8 km/h 14.5 km/h 33% 0 mm
16:07 3.5 °C -10.9 °C 1031 hPa WNW 14.5 km/h 14.5 km/h 34% 0 mm
16:12 3.5 °C -11.3 °C 1031 hPa NW 9.7 km/h 16.1 km/h 33% 0 mm
16:17 3.5 °C -11.3 °C 1031 hPa NW 8 km/h 14.5 km/h 33% 0 mm
16:22 3.6 °C -11.2 °C 1031 hPa NW 9.7 km/h 9.7 km/h 33% 0 mm
16:27 3.6 °C -10.8 °C 1031 hPa NNW 3.2 km/h 9.7 km/h 34% 0 mm
16:32 3.7 °C -11.1 °C 1031 hPa West 12.9 km/h 12.9 km/h 33% 0 mm
16:37 3.6 °C -11.6 °C 1031 hPa WSW 4.8 km/h 9.7 km/h 32% 0 mm
16:42 3.7 °C -11.4 °C 1031 hPa WNW 8 km/h 14.5 km/h 32% 0 mm
16:47 3.7 °C -11.4 °C 1030.7 hPa West 8 km/h 11.3 km/h 32% 0 mm
16:52 3.8 °C -11.4 °C 1030.7 hPa West 6.4 km/h 11.3 km/h 32% 0 mm
16:57 3.8 °C -10.6 °C 1030.7 hPa NW 6.4 km/h 11.3 km/h 34% 0 mm
17:02 3.8 °C -11 °C 1030.7 hPa NW 3.2 km/h 8 km/h 33% 0 mm
17:07 3.8 °C -11 °C 1030.7 hPa WNW 6.4 km/h 12.9 km/h 33% 0 mm
17:12 3.8 °C -11.4 °C 1030.7 hPa NW 4.8 km/h 9.7 km/h 32% 0 mm
17:17 3.7 °C -11.4 °C 1030.7 hPa NNW 1.6 km/h 6.4 km/h 32% 0 mm
17:22 3.8 °C -11.4 °C 1030.7 hPa WNW 4.8 km/h 6.4 km/h 32% 0 mm
17:27 3.7 °C -11.4 °C 1030.7 hPa WNW 6.4 km/h 8 km/h 32% 0 mm
17:32 3.6 °C -11.6 °C 1030.7 hPa West 3.2 km/h 9.7 km/h 32% 0 mm
17:37 3.6 °C -11.6 °C 1030.7 hPa West 1.6 km/h 4.8 km/h 32% 0 mm
17:42 3.7 °C -11.1 °C 1030.7 hPa WNW 6.4 km/h 6.4 km/h 33% 0 mm
17:47 3.4 °C -11.7 °C 1030.4 hPa NW 3.2 km/h 6.4 km/h 32% 0 mm
17:53 3.4 °C -11 °C 1030.4 hPa NW 8 km/h 9.7 km/h 34% 0 mm
17:58 3.2 °C -11.6 °C 1030.4 hPa NW 4.8 km/h 8 km/h 33% 0 mm
18:03 3.1 °C -10.9 °C 1030.4 hPa NW 4.8 km/h 6.4 km/h 35% 0 mm
18:08 2.8 °C -11.1 °C 1030.4 hPa NW 3.2 km/h 6.4 km/h 35% 0 mm
18:13 2.7 °C -11.3 °C 1030.4 hPa WNW 1.6 km/h 4.8 km/h 35% 0 mm
18:18 2.6 °C -11.3 °C 1030.4 hPa NW 3.2 km/h 3.2 km/h 35% 0 mm
18:23 2.3 °C -11.2 °C 1030.4 hPa NW 1.6 km/h 3.2 km/h 36% 0 mm
18:28 1.9 °C -11.2 °C 1030.4 hPa NNW 1.6 km/h 3.2 km/h 37% 0 mm
18:33 1.7 °C -11.1 °C 1030.4 hPa North 1.6 km/h 3.2 km/h 38% 0 mm
18:38 1.6 °C -11.2 °C 1030.4 hPa NNW 3.2 km/h 4.8 km/h 38% 0 mm
18:43 1.3 °C -11.1 °C 1030.4 hPa NNW 3.2 km/h 3.2 km/h 39% 0 mm
18:48 1.1 °C -11 °C 1030.4 hPa NNW 1.6 km/h 3.2 km/h 40% 0 mm
18:53 0.9 °C -11.4 °C 1030.4 hPa NNW 1.6 km/h 3.2 km/h 39% 0 mm
18:58 0.8 °C -11.6 °C 1030.4 hPa NNW 1.6 km/h 1.6 km/h 39% 0 mm
19:03 0.8 °C -11.6 °C 1030.4 hPa NNW 1.6 km/h 1.6 km/h 39% 0 mm
19:08 0.8 °C -11.6 °C 1030.4 hPa NW 1.6 km/h 3.2 km/h 39% 0 mm
19:13 0.7 °C -11.7 °C 1030.4 hPa NW 1.6 km/h 1.6 km/h 39% 0 mm
19:18 0.7 °C -11.7 °C 1030.4 hPa NW 1.6 km/h 1.6 km/h 39% 0 mm
19:23 0.6 °C -11.7 °C 1030.4 hPa Calm   1.6 km/h 39% 0 mm
19:28 0.3 °C -12.1 °C 1030.4 hPa Calm     39% 0 mm
19:33 0.2 °C -11.8 °C 1030 hPa NW 1.6 km/h 1.6 km/h 40% 0 mm
19:38 0.1 °C -11.9 °C 1030 hPa Calm   1.6 km/h 40% 0 mm
19:43 -0.1 °C -11.8 °C 1030 hPa NW 1.6 km/h 1.6 km/h 41% 0 mm
19:48 -0.2 °C -11.9 °C 1030 hPa NW 1.6 km/h 1.6 km/h 41% 0 mm
19:53 -0.3 °C -11.6 °C 1030 hPa Calm     42% 0 mm
19:58 -0.5 °C -11.8 °C 1030 hPa Calm     42% 0 mm
20:03 -0.5 °C -11.8 °C 1030 hPa Calm     42% 0 mm
20:08 -0.4 °C -11.8 °C 1030 hPa Calm   1.6 km/h 42% 0 mm
20:13 -0.3 °C -12 °C 1030 hPa NW 1.6 km/h 3.2 km/h 41% 0 mm
20:18 -0.2 °C -11.9 °C 1030 hPa NW 1.6 km/h 1.6 km/h 41% 0 mm
20:24 -0.4 °C -12.1 °C 1030 hPa Calm   1.6 km/h 41% 0 mm
20:29 -0.6 °C -11.9 °C 1030 hPa NNW 3.2 km/h 3.2 km/h 42% 0 mm
20:34 -0.5 °C -11.8 °C 1030 hPa NNW 1.6 km/h 3.2 km/h 42% 0 mm
20:39 -0.6 °C -11.9 °C 1030 hPa NNW 1.6 km/h 1.6 km/h 42% 0 mm
20:44 -0.7 °C -11.7 °C 1030 hPa NNW 1.6 km/h 3.2 km/h 43% 0 mm
20:49 -0.8 °C -11.8 °C 1030 hPa NNW 1.6 km/h 1.6 km/h 43% 0 mm
20:54 -0.8 °C -11.8 °C 1030 hPa NW 3.2 km/h 3.2 km/h 43% 0 mm
20:59 -0.7 °C -11.7 °C 1030 hPa NW 1.6 km/h 3.2 km/h 43% 0 mm
21:04 -0.9 °C -11.6 °C 1029.7 hPa NW 1.6 km/h 1.6 km/h 44% 0 mm
21:09 -1 °C -11.7 °C 1029.7 hPa NNW 3.2 km/h 3.2 km/h 44% 0 mm
21:14 -1.1 °C -11.8 °C 1029.7 hPa NNW 1.6 km/h 3.2 km/h 44% 0 mm
21:19 -1.2 °C -11.9 °C 1029.7 hPa North 1.6 km/h 3.2 km/h 44% 0 mm
21:24 -1.2 °C -11.6 °C 1029.7 hPa NNW 3.2 km/h 3.2 km/h 45% 0 mm
21:29 -1.2 °C -11.6 °C 1029.7 hPa NNW 3.2 km/h 4.8 km/h 45% 0 mm
21:34 -1.3 °C -11.7 °C 1029.7 hPa North 3.2 km/h 3.2 km/h 45% 0 mm
21:39 -1.3 °C -11.7 °C 1029.7 hPa NNW 3.2 km/h 4.8 km/h 45% 0 mm
21:44 -1.3 °C -11.7 °C 1029.7 hPa North 3.2 km/h 4.8 km/h 45% 0 mm
21:49 -1.4 °C -11.8 °C 1029.7 hPa North 3.2 km/h 4.8 km/h 45% 0 mm
21:54 -1.5 °C -11.6 °C 1029.7 hPa North 1.6 km/h 3.2 km/h 46% 0 mm
21:59 -1.7 °C -11.6 °C 1029.3 hPa NNW 1.6 km/h 1.6 km/h 47% 0 mm
22:04 -1.8 °C -11.3 °C 1029.7 hPa North 3.2 km/h 4.8 km/h 48% 0 mm
22:09 -1.7 °C -11.6 °C 1029.7 hPa NNW 1.6 km/h 3.2 km/h 47% 0 mm
22:14 -1.7 °C -11.6 °C 1029.7 hPa NNW 1.6 km/h 3.2 km/h 47% 0 mm
22:19 -1.9 °C -11.4 °C 1029.7 hPa Calm   1.6 km/h 48% 0 mm
22:24 -2.2 °C -11.2 °C 1029.7 hPa Calm     50% 0 mm
22:29 -2.3 °C -11.8 °C 1029.7 hPa Calm   1.6 km/h 48% 0 mm
22:34 -2.2 °C -12 °C 1029.7 hPa Calm     47% 0 mm
22:39 -2.1 °C -11.9 °C 1029.7 hPa Calm     47% 0 mm
22:44 -2.3 °C -12.1 °C 1029.3 hPa Calm     47% 0 mm
22:49 -2.7 °C -12.2 °C 1029.3 hPa Calm     48% 0 mm
22:54 -2.8 °C -12 °C 1029.3 hPa Calm     49% 0 mm
22:59 -2.6 °C -12.1 °C 1029.3 hPa North 1.6 km/h 1.6 km/h 48% 0 mm
23:04 -2.6 °C -11.8 °C 1029 hPa NNE 1.6 km/h 3.2 km/h 49% 0 mm
23:09 -2.6 °C -11.8 °C 1029 hPa NNE 1.6 km/h 3.2 km/h 49% 0 mm
23:14 -2.6 °C -11.8 °C 1029.3 hPa Calm   3.2 km/h 49% 0 mm
23:19 -2.8 °C -11.8 °C 1029 hPa Calm     50% 0 mm
23:24 -2.9 °C -11.9 °C 1029 hPa Calm     50% 0 mm
23:30 -2.8 °C -11.7 °C 1029 hPa Calm   1.6 km/h 50% 0 mm
23:35 -2.6 °C -11.8 °C 1028.7 hPa Calm   1.6 km/h 49% 0 mm
23:40 -2.5 °C -11.7 °C 1028.7 hPa Calm   1.6 km/h 49% 0 mm
23:45 -2.4 °C -11.7 °C 1029 hPa Calm   1.6 km/h 49% 0 mm
23:50 -2.7 °C -11.7 °C 1029 hPa Calm     50% 0 mm
23:55 -2.9 °C -11.9 °C 1029 hPa Calm     50% 0 mm
Compliments of Weather Underground